LFBD

Bordeaux/Merignac

Airport
ICAO code
LFBD
Summary
ICAO Region
EUR
ICAO Territory
Location

Bordeaux/Merignac, Aquitaine,

Coordinates
44° 49' 42" N , 0° 42' 56" W
KCC
Metar
LFBD 021100Z AUTO 09005KT 340V140 CAVOK 28/13 Q1014 NOSIG

Description

International airport serving city of Bordeaux.

Climatology

Temperate Marine climate/Oceanic climate (Köppen climate classification Cfb). Moderately cool summer and comparatively warm winter with a temperature range of only 14°C. Prevailing south-westerly winds from the Atlantic Ocean.

Runways

Designator Length Width Surface Rops
11/29 2415 45 ASP Yes/Yes
5/23 3100 45 ASP Yes/Yes

Airport map

Aerial View

SKYbrary Partners:

Safety knowledge contributed by: